Hourly Data Report for December 01, 2020

VICTORIA UNIVERSITY CS
BRITISH COLUMBIA
Current Station Operator: ECCC - MSC

48°27'25.200" N
123°18'16.600" W
60.10 m
1018598
71783
WYJ

Download Data

Hourly Data (December 2020)
Hourly Data Report for December 1, 2020
TIME
LST
Temp Definition
°C
Dew Point Definition
°C
Rel Hum Definition
%
Precip. Amount Definition
mm

Wind Dir Definition
10's deg

Wind Spd Definition
km/h
Visibility Definition
km
Stn Press Definition
kPa
Hmdx Definition


Wind Chill Definition


Weather Definition


00:00 2.7 2.4 97 0.0 26 4   102.55     LegendNANA
01:00 2.3 1.9 98 0.0 0 1   102.61     LegendNANA
02:00 1.4 1.2 98 0.0 27 1   102.71     LegendNANA
03:00 1.2 1.1 99 0.0 26 3   102.79     LegendNANA
04:00 1.6 1.5 99 0.0 34 3   102.86     LegendNANA
05:00 3.9 3.1 95 0.0 36 5   102.93     LegendNANA
06:00 2.0 1.5 96 0.0 33 5   102.89     LegendNANA
07:00 2.1 1.8 98 0.0 33 6   102.87     LegendNANA
08:00 3.4 1.5 87 0.0 33 6   102.92     LegendNANA
09:00 4.3 1.7 83 0.0 36 7   103.00     LegendNANA
10:00 5.8 3.1 83 0.0 35 8   103.02     LegendNANA
11:00 6.5 3.3 80 0.2 34 7   103.02     LegendNANA
12:00 6.6 3.6 81 0.0 3 8   102.95     LegendNANA
13:00 6.8 3.8 81 0.0 2 11   102.89     LegendNANA
14:00 6.7 3.5 80 0.0 1 7   102.84     LegendNANA
15:00 6.2 3.4 82 0.0 36 9   102.77     LegendNANA
16:00 5.7 3.8 88 0.0 36 7   102.71     LegendNANA
17:00 5.3 3.5 88 0.0 36 8   102.68     LegendNANA
18:00 4.6 3.2 91 0.0 36 8   102.64     LegendNANA
19:00 4.7 3.1 89 0.0 36 10   102.59     LegendNANA
20:00 4.6 3.3 92 0.0 36 8   102.55     LegendNANA
21:00 4.3 3.2 92 0.0 35 8   102.48     LegendNANA
22:00 4.6 3.8 95 0.0 36 10   102.41     LegendNANA
23:00 4.6 3.8 94 0.0 36 12   102.36     LegendNANA

Notes on Data Quality.

Legend

  • E = Estimated
  • M = Missing
  • NA = Not Available*
  • [empty] = Indicates an unobserved value
Date modified: